QTR78 OTBD-EDDM

Flight info

Callsign QTR78
Flight time N/A
Altitude 30000
Route TULUB B457 NARMI N697 HIL T540 ENABI L550 NOVPA J981 DATOK L550 STEPA L53 ANIDE DCT RIPLI/N0485F320 DCT BITLA DCT MAVAR DCT BOSNA DCT RASTA DCT REDBU Q112 NAPSA NAPSA4A
Aircraft B77L/H-SDE1E2E3FGHIJ2J3J4J5M1RWXY/LB1D1

Departure

Time 2026-05-09 04:55
Airport Doha International Airport (OTBD)

Arrival

Time N/A
Airport Munich Airport (EDDM)
Time Latitude Longitude Altitude Speed Heading
2026-05-09 04:06 25.26470 51.56805 40 ft 0 kts 338°
2026-05-09 04:40 25.26469 51.56805 40 ft 0 kts 338°
2026-05-09 04:41 25.26463 51.56808 40 ft 2 kts 338°
2026-05-09 04:41 25.26450 51.56815 40 ft 2 kts 338°
2026-05-09 04:41 25.26436 51.56821 39 ft 2 kts 338°
2026-05-09 04:41 25.26423 51.56827 39 ft 1 kts 338°
2026-05-09 04:42 25.26413 51.56831 39 ft 2 kts 330°
2026-05-09 04:42 25.26402 51.56842 39 ft 2 kts 307°
2026-05-09 04:42 25.26394 51.56856 39 ft 2 kts 288°
2026-05-09 04:42 25.26392 51.56872 38 ft 2 kts 270°
2026-05-09 04:43 25.26394 51.56888 39 ft 1 kts 251°
2026-05-09 04:43 25.26396 51.56894 39 ft 0 kts 247°
2026-05-09 04:43 25.26396 51.56895 39 ft 0 kts 247°
2026-05-09 04:46 25.26396 51.56894 39 ft 0 kts 247°
2026-05-09 04:46 25.26393 51.56888 38 ft 1 kts 247°
2026-05-09 04:46 25.26385 51.56867 38 ft 4 kts 248°
2026-05-09 04:46 25.26372 51.56831 38 ft 6 kts 249°
2026-05-09 04:47 25.26356 51.56784 38 ft 6 kts 249°
2026-05-09 04:47 25.26340 51.56739 39 ft 6 kts 248°
2026-05-09 04:47 25.26324 51.56696 40 ft 6 kts 248°
2026-05-09 04:47 25.26310 51.56660 40 ft 3 kts 240°
2026-05-09 04:48 25.26285 51.56638 40 ft 5 kts 198°
2026-05-09 04:48 25.26237 51.56647 39 ft 9 kts 160°
2026-05-09 04:48 25.26166 51.56676 37 ft 12 kts 159°
2026-05-09 04:48 25.26073 51.56717 35 ft 15 kts 158°
2026-05-09 04:49 25.25962 51.56766 32 ft 18 kts 158°
2026-05-09 04:49 25.25839 51.56821 31 ft 19 kts 158°
2026-05-09 04:49 25.25709 51.56878 29 ft 20 kts 158°
2026-05-09 04:49 25.25577 51.56937 28 ft 20 kts 158°
2026-05-09 04:50 25.25451 51.56993 29 ft 19 kts 158°
2026-05-09 04:50 25.25327 51.57047 31 ft 18 kts 158°
2026-05-09 04:50 25.25211 51.57109 33 ft 18 kts 151°
2026-05-09 04:50 25.25099 51.57169 37 ft 17 kts 156°
2026-05-09 04:51 25.24994 51.57216 40 ft 15 kts 159°
2026-05-09 04:51 25.24889 51.57261 40 ft 16 kts 159°
2026-05-09 04:51 25.24777 51.57309 40 ft 17 kts 159°
2026-05-09 04:51 25.24684 51.57350 40 ft 5 kts 158°
2026-05-09 04:52 25.24639 51.57347 40 ft 8 kts 212°
2026-05-09 04:52 25.24619 51.57316 41 ft 0 kts 250°
2026-05-09 04:52 25.24619 51.57315 41 ft 0 kts 250°
2026-05-09 04:53 25.24613 51.57298 41 ft 4 kts 250°
2026-05-09 04:53 25.24600 51.57259 42 ft 6 kts 249°
2026-05-09 04:53 25.24587 51.57213 43 ft 4 kts 275°
2026-05-09 04:53 25.24596 51.57190 43 ft 4 kts 306°
2026-05-09 04:54 25.24615 51.57169 44 ft 3 kts 326°
2026-05-09 04:54 25.24653 51.57148 44 ft 10 kts 338°
2026-05-09 04:54 25.24832 51.57071 41 ft 55 kts 338°
2026-05-09 04:54 25.25384 51.56827 31 ft 114 kts 338°
2026-05-09 04:55 25.26299 51.56422 44 ft 166 kts 338°
2026-05-09 04:55 25.27474 51.55911 257 ft 189 kts 338°
2026-05-09 04:55 25.28723 51.55346 837 ft 199 kts 337°
2026-05-09 04:55 25.29998 51.54723 1530 ft 210 kts 338°
2026-05-09 04:56 25.31409 51.54053 1930 ft 224 kts 341°
2026-05-09 04:56 25.32779 51.53310 2613 ft 226 kts 325°
2026-05-09 04:56 25.33820 51.51978 3301 ft 229 kts 300°
2026-05-09 04:56 25.34364 51.50392 4139 ft 219 kts 296°
2026-05-09 04:57 25.35063 51.48933 4696 ft 215 kts 308°
2026-05-09 04:57 25.35951 51.47583 4942 ft 218 kts 309°
2026-05-09 04:57 25.36862 51.46260 4974 ft 216 kts 310°
2026-05-09 04:57 25.37674 51.44814 4975 ft 231 kts 292°
2026-05-09 04:58 25.37924 51.42999 4984 ft 246 kts 268°
2026-05-09 04:58 25.37456 51.41205 4975 ft 252 kts 243°
2026-05-09 04:58 25.36263 51.39724 4970 ft 262 kts 216°
2026-05-09 04:58 25.34556 51.38983 4967 ft 268 kts 187°
2026-05-09 04:59 25.32705 51.39200 4965 ft 275 kts 158°
2026-05-09 04:59 25.31110 51.40426 5127 ft 288 kts 125°
2026-05-09 04:59 25.30280 51.42408 5584 ft 288 kts 95°
2026-05-09 04:59 25.30452 51.44554 6172 ft 282 kts 66°
2026-05-09 05:00 25.31525 51.46328 6688 ft 278 kts 37°
2026-05-09 05:00 25.33166 51.47461 7217 ft 279 kts 25°
2026-05-09 05:00 25.34904 51.48426 7774 ft 282 kts 24°
2026-05-09 05:00 25.36665 51.49392 8236 ft 288 kts 24°
2026-05-09 05:01 25.38476 51.50384 8707 ft 293 kts 24°
2026-05-09 05:01 25.40292 51.51380 9222 ft 295 kts 24°
2026-05-09 05:01 25.42152 51.52401 9743 ft 298 kts 24°
2026-05-09 05:01 25.44008 51.53418 10214 ft 304 kts 23°
2026-05-09 05:02 25.46068 51.54106 10354 ft 318 kts
2026-05-09 05:02 25.48343 51.54371 10545 ft 334 kts
2026-05-09 05:02 25.50713 51.54578 10864 ft 347 kts
2026-05-09 05:02 25.53148 51.54796 11395 ft 352 kts
2026-05-09 05:03 25.55595 51.55020 11994 ft 355 kts
2026-05-09 05:03 25.58054 51.55248 12588 ft 359 kts
2026-05-09 05:03 25.60573 51.55484 13168 ft 364 kts
2026-05-09 05:03 25.63108 51.55721 13775 ft 367 kts
2026-05-09 05:04 25.65649 51.55959 14388 ft 371 kts
2026-05-09 05:04 25.68265 51.56117 14993 ft 375 kts
2026-05-09 05:04 25.70867 51.56205 15608 ft 378 kts
2026-05-09 05:04 25.73502 51.56296 16217 ft 382 kts
2026-05-09 05:05 25.76207 51.56393 16782 ft 386 kts
2026-05-09 05:05 25.78875 51.56193 17337 ft 389 kts 349°
2026-05-09 05:05 25.81505 51.55422 17853 ft 392 kts 338°
2026-05-09 05:05 25.83980 51.54081 18366 ft 395 kts 326°
2026-05-09 05:06 25.86135 51.52260 18888 ft 395 kts 314°
2026-05-09 05:06 25.87958 51.49969 19441 ft 394 kts 302°
2026-05-09 05:06 25.89369 51.47381 19978 ft 394 kts 295°
2026-05-09 05:06 25.90671 51.44690 20549 ft 396 kts 295°
2026-05-09 05:07 25.91975 51.41982 21098 ft 398 kts 294°
2026-05-09 05:07 25.93286 51.39262 21643 ft 400 kts 294°
2026-05-09 05:07 25.94600 51.36534 22143 ft 402 kts 294°
2026-05-09 05:07 25.95923 51.33792 22641 ft 405 kts 293°
2026-05-09 05:08 25.97253 51.31031 23157 ft 406 kts 293°
2026-05-09 05:08 25.98559 51.28273 23624 ft 408 kts 292°
2026-05-09 05:08 25.99869 51.25468 24121 ft 410 kts 292°
2026-05-09 05:08 26.01178 51.22666 24617 ft 411 kts 291°
2026-05-09 05:09 26.02494 51.19846 25078 ft 414 kts 291°
2026-05-09 05:09 26.03828 51.16989 25538 ft 416 kts 291°
2026-05-09 05:09 26.05153 51.14152 25976 ft 419 kts 291°
2026-05-09 05:09 26.06514 51.11235 26438 ft 421 kts 291°
2026-05-09 05:10 26.07855 51.08362 26943 ft 422 kts 291°
2026-05-09 05:10 26.09212 51.05450 27402 ft 424 kts 290°
2026-05-09 05:10 26.10569 51.02538 27787 ft 427 kts 290°
2026-05-09 05:10 26.11925 50.99575 28133 ft 429 kts 288°
2026-05-09 05:11 26.13170 50.96550 28556 ft 430 kts 287°
2026-05-09 05:11 26.14393 50.93539 29029 ft 431 kts 287°
2026-05-09 05:11 26.15633 50.90493 29529 ft 431 kts 287°
2026-05-09 05:11 26.16866 50.87468 29883 ft 435 kts 287°
2026-05-09 05:12 26.18128 50.84373 29913 ft 444 kts 287°
2026-05-09 05:12 26.20741 50.77974 29915 ft 464 kts 288°
2026-05-09 05:13 26.23462 50.71316 29910 ft 479 kts 288°
2026-05-09 05:13 26.25828 50.64521 29916 ft 469 kts 277°
2026-05-09 05:14 26.26889 50.57405 29918 ft 462 kts 272°
2026-05-09 05:14 26.27800 50.50371 29910 ft 462 kts 272°
2026-05-09 05:15 26.28714 50.43280 29907 ft 462 kts 272°
2026-05-09 05:15 26.29622 50.36212 29908 ft 462 kts 272°
2026-05-09 05:16 26.31306 50.29273 29923 ft 473 kts 284°
2026-05-09 05:16 26.33758 50.22469 29919 ft 474 kts 285°
2026-05-09 05:17 26.36219 50.15653 29913 ft 474 kts 284°
2026-05-09 05:17 26.38667 50.08851 29918 ft 473 kts 284°
2026-05-09 05:18 26.41112 50.02039 29924 ft 476 kts 284°
2026-05-09 05:18 26.43555 49.95223 29922 ft 472 kts 284°
2026-05-09 05:19 26.45983 49.88427 29926 ft 475 kts 284°
2026-05-09 05:19 26.48425 49.81589 29929 ft 473 kts 284°
2026-05-09 05:20 26.50571 49.74671 29931 ft 467 kts 279°
2026-05-09 05:20 26.52329 49.67719 29927 ft 466 kts 278°
2026-05-09 05:21 26.54084 49.60752 29932 ft 466 kts 279°
2026-05-09 05:21 26.55829 49.53818 29935 ft 466 kts 279°
2026-05-09 05:22 26.57591 49.46806 29943 ft 466 kts 278°
2026-05-09 05:22 26.59320 49.39912 29938 ft 465 kts 278°
2026-05-09 05:23 26.61064 49.32941 29955 ft 465 kts 278°
2026-05-09 05:23 26.62801 49.25984 29958 ft 464 kts 278°
2026-05-09 05:24 26.64519 49.19091 29960 ft 464 kts 278°
2026-05-09 05:24 26.66252 49.12114 29961 ft 463 kts 278°
2026-05-09 05:25 26.67966 49.05198 29962 ft 467 kts 278°
2026-05-09 05:25 26.70548 48.94766 29964 ft 463 kts 278°
2026-05-09 05:26 26.72253 48.87849 29965 ft 465 kts 278°
2026-05-09 05:26 26.73973 48.80861 29973 ft 463 kts 278°
2026-05-09 05:27 26.75680 48.73904 29973 ft 465 kts 278°
2026-05-09 05:27 26.76430 48.66913 29983 ft 448 kts 263°
2026-05-09 05:28 26.76275 48.59937 29984 ft 448 kts 263°
2026-05-09 05:28 26.76098 48.53030 29985 ft 446 kts 263°
2026-05-09 05:29 26.75915 48.46125 29992 ft 446 kts 262°
2026-05-09 05:29 26.75725 48.39164 29996 ft 448 kts 263°
2026-05-09 05:30 26.75536 48.32291 30004 ft 445 kts 262°
2026-05-09 05:30 26.75342 48.25368 30010 ft 446 kts 262°
2026-05-09 05:31 26.75147 48.18464 30010 ft 446 kts 262°
2026-05-09 05:31 26.74948 48.11562 30014 ft 443 kts 262°
2026-05-09 05:32 26.74746 48.04678 30010 ft 445 kts 262°
2026-05-09 05:32 26.74539 47.97758 30019 ft 445 kts 262°
2026-05-09 05:33 26.74332 47.90919 30017 ft 443 kts 262°
2026-05-09 05:33 26.74450 47.83982 30022 ft 446 kts 267°
2026-05-09 05:34 26.74808 47.77052 30024 ft 447 kts 266°
2026-05-09 05:34 26.75161 47.70112 30033 ft 449 kts 267°
2026-05-09 05:35 26.75508 47.63179 30031 ft 448 kts 267°
2026-05-09 05:35 26.75850 47.56247 30033 ft 448 kts 267°
2026-05-09 05:36 26.76190 47.49299 30034 ft 446 kts 267°
2026-05-09 05:36 26.76522 47.42402 30043 ft 446 kts 267°
2026-05-09 05:37 26.77069 47.35495 30041 ft 450 kts 272°
2026-05-09 05:37 26.78134 47.28609 30053 ft 452 kts 272°
2026-05-09 05:38 26.79211 47.21655 30054 ft 453 kts 273°
2026-05-09 05:38 26.80277 47.14739 30047 ft 452 kts 272°
2026-05-09 05:39 26.81332 47.07858 30060 ft 453 kts 273°
2026-05-09 05:39 26.82390 47.00934 30069 ft 451 kts 272°
2026-05-09 05:40 26.83442 46.94009 30066 ft 453 kts 273°
2026-05-09 05:40 26.84491 46.87088 30058 ft 453 kts 273°
2026-05-09 05:41 26.85538 46.80160 30065 ft 452 kts 273°
2026-05-09 05:41 26.86580 46.73233 30067 ft 455 kts 273°
2026-05-09 05:42 26.87627 46.66256 30059 ft 452 kts 273°
2026-05-09 05:42 26.88660 46.59343 30069 ft 454 kts 273°
2026-05-09 05:43 26.89700 46.52354 30070 ft 455 kts 274°
2026-05-09 05:43 26.90734 46.45394 30081 ft 453 kts 274°
2026-05-09 05:44 26.91763 46.38431 30072 ft 457 kts 274°
2026-05-09 05:44 26.92803 46.31426 30088 ft 452 kts 274°
2026-05-09 05:45 26.93827 46.24493 30090 ft 456 kts 274°
2026-05-09 05:45 26.94857 46.17503 30096 ft 455 kts 274°
2026-05-09 05:46 26.95884 46.10505 30095 ft 457 kts 274°
2026-05-09 05:46 26.96903 46.03537 30092 ft 454 kts 274°
2026-05-09 05:47 26.97921 45.96550 30098 ft 457 kts 274°
2026-05-09 05:47 26.98941 45.89526 30103 ft 458 kts 275°
2026-05-09 05:48 26.99955 45.82511 30091 ft 457 kts 275°
2026-05-09 05:48 27.00967 45.75489 30098 ft 458 kts 275°
2026-05-09 05:49 27.01978 45.68455 30085 ft 457 kts 275°
2026-05-09 05:49 27.02987 45.61401 30094 ft 460 kts 275°
2026-05-09 05:50 27.03993 45.54349 30090 ft 458 kts 276°
2026-05-09 05:50 27.04995 45.47300 30085 ft 460 kts 276°
2026-05-09 05:51 27.05911 45.40256 30085 ft 459 kts 274°
2026-05-09 05:51 27.06690 45.33143 30089 ft 459 kts 274°
2026-05-09 05:52 27.07473 45.26025 30104 ft 461 kts 275°
2026-05-09 05:52 27.08257 45.18916 30105 ft 460 kts 275°
2026-05-09 05:53 27.09042 45.11786 30101 ft 461 kts 275°
2026-05-09 05:53 27.09832 45.04596 30093 ft 467 kts 275°
2026-05-09 05:54 27.10617 44.97427 30085 ft 465 kts 275°
2026-05-09 05:54 27.11398 44.90253 30090 ft 465 kts 275°
2026-05-09 05:55 27.12172 44.83115 30084 ft 462 kts 276°
2026-05-09 05:55 27.12946 44.75948 30086 ft 462 kts 276°
2026-05-09 05:56 27.13713 44.68807 30095 ft 464 kts 276°
2026-05-09 05:56 27.14480 44.61650 30091 ft 461 kts 277°
2026-05-09 05:57 27.15243 44.54489 30080 ft 461 kts 277°
2026-05-09 05:57 27.15996 44.47391 30079 ft 462 kts 277°
2026-05-09 05:58 27.16751 44.40240 30081 ft 463 kts 278°
2026-05-09 05:58 27.17498 44.33091 30087 ft 461 kts 278°
2026-05-09 05:59 27.18241 44.25921 30094 ft 464 kts 278°
2026-05-09 05:59 27.18979 44.18754 30107 ft 465 kts 278°
2026-05-09 06:00 27.19716 44.11570 30094 ft 463 kts 278°
2026-05-09 06:00 27.20451 44.04366 30106 ft 465 kts 279°
2026-05-09 06:01 27.21178 43.97201 30107 ft 465 kts 279°
2026-05-09 06:01 27.21908 43.89973 30112 ft 464 kts 279°
2026-05-09 06:02 27.22629 43.82798 30107 ft 464 kts 279°
2026-05-09 06:02 27.23344 43.75647 30114 ft 465 kts 279°
2026-05-09 06:03 27.24064 43.68404 30109 ft 467 kts 279°
2026-05-09 06:03 27.24778 43.61204 30110 ft 462 kts 279°
2026-05-09 06:04 27.25486 43.54033 30115 ft 466 kts 280°
2026-05-09 06:04 27.26197 43.46797 30111 ft 466 kts 279°
2026-05-09 06:05 27.26897 43.39619 30105 ft 464 kts 279°
2026-05-09 06:05 27.27597 43.32405 30119 ft 464 kts 280°
2026-05-09 06:06 27.28293 43.25205 30119 ft 468 kts 279°
2026-05-09 06:06 27.28985 43.17995 30124 ft 462 kts 280°
2026-05-09 06:07 27.29676 43.10772 30121 ft 465 kts 280°
2026-05-09 06:07 27.30360 43.03566 30125 ft 466 kts 280°
2026-05-09 06:08 27.31041 42.96351 30122 ft 463 kts 280°
2026-05-09 06:08 27.31720 42.89132 30125 ft 465 kts 281°
2026-05-09 06:09 27.32394 42.81915 30127 ft 465 kts 280°
2026-05-09 06:09 27.33062 42.74727 30125 ft 464 kts 280°
2026-05-09 06:10 27.33732 42.67484 30127 ft 466 kts 280°
2026-05-09 06:10 27.34393 42.60278 30128 ft 463 kts 280°
2026-05-09 06:11 27.35049 42.53102 30133 ft 467 kts 280°
2026-05-09 06:11 27.35706 42.45856 30131 ft 462 kts 280°
2026-05-09 06:12 27.36355 42.38673 30136 ft 464 kts 280°
2026-05-09 06:12 27.37004 42.31436 30146 ft 463 kts 279°
2026-05-09 06:13 27.37646 42.24234 30151 ft 465 kts 279°
2026-05-09 06:13 27.38287 42.17002 30150 ft 465 kts 279°
2026-05-09 06:14 27.38922 42.09794 30145 ft 464 kts 279°
2026-05-09 06:14 27.39553 42.02592 30142 ft 462 kts 279°
2026-05-09 06:15 27.40179 41.95399 30136 ft 464 kts 279°
2026-05-09 06:15 27.40801 41.88213 30131 ft 464 kts 279°
2026-05-09 06:16 27.41424 41.80969 30121 ft 462 kts 279°
2026-05-09 06:16 27.42037 41.73807 30119 ft 464 kts 280°
2026-05-09 06:17 27.43597 41.66874 30120 ft 456 kts 296°
2026-05-09 06:17 27.46712 41.60717 30132 ft 452 kts 304°
2026-05-09 06:18 27.50067 41.54695 30144 ft 454 kts 304°
2026-05-09 06:18 27.53399 41.48701 30146 ft 454 kts 303°
2026-05-09 06:19 27.56747 41.42667 30157 ft 454 kts 303°
2026-05-09 06:19 27.60094 41.36625 30141 ft 454 kts 303°
2026-05-09 06:20 27.63430 41.30595 30146 ft 456 kts 303°
2026-05-09 06:20 27.66755 41.24574 30135 ft 454 kts 303°
2026-05-09 06:21 27.70099 41.18511 30134 ft 456 kts 303°
2026-05-09 06:21 27.73418 41.12485 30133 ft 455 kts 303°
2026-05-09 06:22 27.76747 41.06431 30129 ft 455 kts 303°
2026-05-09 06:22 27.80073 41.00376 30125 ft 454 kts 303°
2026-05-09 06:23 27.83425 40.94264 30127 ft 457 kts 302°
2026-05-09 06:23 27.86754 40.88186 30123 ft 455 kts 302°
2026-05-09 06:24 27.90073 40.82117 30121 ft 456 kts 302°
2026-05-09 06:24 27.93391 40.76041 30126 ft 457 kts 302°
2026-05-09 06:25 27.96723 40.69932 30120 ft 454 kts 302°
2026-05-09 06:25 28.00051 40.63820 30123 ft 456 kts 302°
2026-05-09 06:26 28.03371 40.57715 30118 ft 456 kts 302°
2026-05-09 06:26 28.06684 40.51614 30122 ft 457 kts 302°
2026-05-09 06:27 28.09990 40.45517 30120 ft 456 kts 302°
2026-05-09 06:27 28.13310 40.39384 30128 ft 457 kts 302°
2026-05-09 06:28 28.16611 40.33279 30134 ft 458 kts 301°
2026-05-09 06:28 28.19915 40.27160 30134 ft 456 kts 301°
2026-05-09 06:29 28.23220 40.21030 30135 ft 457 kts 302°
2026-05-09 06:29 28.26540 40.14862 30133 ft 457 kts 301°
2026-05-09 06:30 28.29845 40.08749 30127 ft 457 kts 303°
2026-05-09 06:30 28.33757 40.03054 30133 ft 458 kts 308°
2026-05-09 06:31 28.37748 39.97461 30132 ft 457 kts 308°
2026-05-09 06:31 28.41766 39.91816 30128 ft 458 kts 308°
2026-05-09 06:32 28.45749 39.86207 30127 ft 457 kts 308°
2026-05-09 06:33 28.51729 39.77770 30127 ft 456 kts 308°
2026-05-09 06:33 28.55712 39.72138 30128 ft 458 kts 308°
2026-05-09 06:34 28.61678 39.63691 30123 ft 458 kts 308°
2026-05-09 06:34 28.65648 39.58059 30124 ft 458 kts 308°
2026-05-09 06:35 28.69640 39.52388 30120 ft 458 kts 308°
2026-05-09 06:35 28.73606 39.46746 30118 ft 457 kts 308°
2026-05-09 06:36 28.77575 39.41093 30118 ft 459 kts 308°
2026-05-09 06:36 28.81556 39.35415 30117 ft 458 kts 308°
2026-05-09 06:37 28.85532 39.29736 30124 ft 458 kts 308°
2026-05-09 06:37 28.89511 39.24046 30122 ft 459 kts 307°
2026-05-09 06:38 28.93487 39.18352 30124 ft 459 kts 307°
2026-05-09 06:38 28.97443 39.12677 30120 ft 459 kts 307°
2026-05-09 06:39 29.01435 39.06945 30120 ft 460 kts 307°
2026-05-09 06:39 29.05394 39.01252 30113 ft 459 kts 307°
2026-05-09 06:40 29.08938 38.95182 30113 ft 459 kts 295°
2026-05-09 06:40 29.10754 38.88264 30114 ft 460 kts 279°
2026-05-09 06:41 29.10983 38.80935 30116 ft 464 kts 272°
2026-05-09 06:41 29.10975 38.73566 30117 ft 463 kts 272°
2026-05-09 06:42 29.10950 38.66215 30116 ft 463 kts 271°
2026-05-09 06:42 29.10914 38.58854 30120 ft 464 kts 271°
2026-05-09 06:43 29.10872 38.51522 30116 ft 463 kts 272°
2026-05-09 06:43 29.10823 38.44157 30112 ft 463 kts 271°
2026-05-09 06:44 29.10770 38.36798 30120 ft 463 kts 271°
2026-05-09 06:44 29.10712 38.29489 30124 ft 464 kts 271°